Preview of NWS' New Version of Forecast
This preview is not operational and should not be used for support decisions.

Regional Weather Roundup (RWR)

Issued by National Weather Service (NWS)

                            
000
ASUS43 KDTX 182010
RWRMI 
MICHIGAN HOURLY REGIONAL WEATHER ROUNDUP
NATIONAL WEATHER SERVICE DETROIT/PONTIAC MI
300 PM EST FRI JAN 18 2019

NOTE: "FAIR" INDICATES FEW OR NO CLOUDS BELOW 12,000 FEET WITH NO
SIGNIFICANT WEATHER AND/OR OBSTRUCTION TO VISIBILITY.

MIZ047>049-052>055-059>063-066>070-074>076-081>083-182100-
SOUTHEAST LOWER MICHIGAN
  
CITY           SKY/WX    TMP DP  RH WIND       PRES   REMARKS
ADRIAN         CLOUDY    31  23  72 N7        30.14F WCI  24          
ALMA           FAIR      28  15  58 NW7       30.15S WCI  21          
ANN ARBOR      CLOUDY    29  21  72 W7        30.14S WCI  22          
BAD AXE        CLOUDY    27  16  63 W9        30.13R WCI  18          
CARO           FAIR      28  17  64 NW8       30.14S WCI  20          
DETROIT CITY   CLOUDY    28  18  66 NW10      30.15R WCI  19          
DETROIT        CLOUDY    30  19  63 NW8       30.15S WCI  22          
FLINT          FAIR      26  16  65 NW6       30.16S WCI  19          
GROSSE ILE     CLOUDY    31  23  73 NW8       30.14F WCI  23          
HILLSDALE      CLOUDY    30  23  73 N7        30.11S WCI  23          
HOWELL         FAIR      28  17  64 W8        30.13S WCI  20          

CITY           SKY/WX    TMP DP  RH WIND       PRES   REMARKS
JACKSON        PTSUNNY   29  22  75 NW7       30.13S WCI  22          
LAMBERTVILLE   CLOUDY    32  25  74 N7        30.14F WCI  26          
LANSING        PTSUNNY   27  17  66 NW6       30.16S WCI  20          
LAPEER         CLOUDY    27  15  61 W6        30.15S WCI  21          
MASON          CLOUDY    29  21  70 W5        30.14S WCI  24          
MONROE         CLOUDY    31  26  80 NW7       30.14S WCI  24          
MT. CLEMENS    CLOUDY    28  20  70 NW9       30.14R WCI  20          
PONTIAC        CLOUDY    27  18  69 NW7       30.12S WCI  19          
PORT HOPE        N/A     27  15  61 W13G20    30.13R WCI  16          
PORT HURON     CLOUDY    28  18  64 W7        30.16R WCI  21          
TRI CITIES     FAIR      28  16  60 NW10      30.15S WCI  19          
MIDLAND        FAIR      29  15  55 W7        30.14S WCI  22          
TROY           CLOUDY    28  18  64 W8        30.17S WCI  20          
SAGINAW HB     FAIR      30  16  55 W7        30.15R WCI  23          
$$
MIZ043>046-050>051-056>058-064>065-071>073-077>080-182100-
SOUTHWEST LOWER MICHIGAN
  
CITY           SKY/WX    TMP DP  RH WIND       PRES   REMARKS
BATTLE CREEK   CLOUDY    28  19  69 NW7       30.14F WCI  21          
BENTON HARBOR  CLOUDY    30  20  66 VRB6      30.17R WCI  24          
BIG RAPIDS     FAIR      27  11  53 NW7       30.13S WCI  19          
COLDWATER      CLOUDY    31  25  77 N5        30.13F WCI  27          
FREMONT        FAIR      28  14  57 NW6       30.17R WCI  21          
HOLLAND        PTSUNNY   30  17  58 VRB7      30.18R WCI  23          
GRAND RAPIDS   CLOUDY    28  14  55 NW7       30.15F WCI  21          
IONIA          PTSUNNY   28  13  53 NW6       30.14F WCI  21          
KALAMAZOO      CLOUDY    28  19  69 N6        30.16S WCI  22          
LUDINGTON      FAIR      24  11  57 N8        30.20R WCI  15          
MARSHALL       CLOUDY    30  23  75 NW5       30.13F WCI  25          
MOUNT PLEASANT FAIR      28  13  53 W5        30.13F WCI  23          
SOUTH HAVEN    CLOUDY    30  19  64 NE5       30.18R WCI  25          
$$
MIZ016>042-182100-
NORTHERN LOWER MICHIGAN
  
CITY           SKY/WX    TMP DP  RH WIND       PRES   REMARKS
ALPENA         CLOUDY    23   7  50 NW12G18   30.15R WCI  12          
BEAVER ISLAND  PTSUNNY   14   3  60 NW13G22   30.22R WCI   0          
BELLAIRE       CLOUDY    21   9  58 NW8       30.19R WCI  12          
CADILLAC       FAIR      21   3  45 NW8       30.10S WCI  11          
CHARLEVOIX     CLOUDY    19  10  65 NW14G23   30.22S WCI   6          
FRANKFORT      PTSUNNY   22  10  61 N8        30.20R WCI  12          
GAYLORD        CLOUDY    17  10  74 NW9       30.11R WCI   6          
GRAYLING       FAIR      19   9  63 NW10      30.12R WCI   8          
HARBOR SPRINGS CLOUDY    17   5  59 NW10G18   30.19R WCI   5          
HOUGHTON LAKE  FAIR      21   7  54 NW7       30.12R WCI  12          
MANISTEE       PTSUNNY   25  12  58 NW10      30.20R WCI  15          
OSCODA         FAIR      27  11  50 W13       30.13R WCI  17          
PELLSTON       PTSUNNY   15   4  61 NW16      30.20R WCI  -1          
ROGERS CITY    FLURRIES  19  10  67 NW13G22   30.17R WCI   7          
TRAVERSE CITY  CLOUDY    23  11  60 N12       30.17R WCI  12          
$$
MIZ007>008-015-182100-
EASTERN UPPER MICHIGAN
  
CITY           SKY/WX    TMP DP  RH WIND       PRES   REMARKS
KINROSS        SNOW      10   5  80 N16G25    30.19R VSB 1/2 WCI  -7  
MACKINAC ISLAN CLOUDY    16   4  59 NW13G21   30.19R WCI   2          
NEWBERRY       LGT SNOW  10  -3  55 NW9G20    30.21R WCI  -3          
S. S. MARIE    LGT SNOW   8   1  73 N12G26    30.20R VSB 1   WCI  -7  
MUNISING         N/A     11   3  70 NW16      30.26R WCI  -6          
$$
MIZ004>006-011>014-085-182100-
CENTRAL UPPER MICHIGAN
  
CITY           SKY/WX    TMP DP  RH WIND       PRES   REMARKS
MANISTIQUE     CLOUDY    13  -6  43 NW14      30.23R WCI  -2          
ESCANABA       PTSUNNY   13   1  59 N9G20     30.25R WCI   1          
MENOMINEE      FAIR      20   7  57 N8        30.26R WCI  10          
SAWYER-GWINN   PTSUNNY    7  -2  66 N14       30.21R WCI -10          
$$
MIZ001>003-009>011-084-182100-
WESTERN UPPER MICHIGAN
  
CITY           SKY/WX    TMP DP  RH WIND       PRES   REMARKS
IRON MOUNTAIN  FAIR      10  -1  61 NW13      30.21R WCI  -5          
HOUGHTON       LGT SNOW   2  -9  60 N13       30.26F WCI -15          
COPPER HARBOR    N/A      5  -1  76 N16G26    30.31S WCI -14          
IRONWOOD       LGT SNOW   7   0  73 N8        30.27R WCI  -6          
$$

ABBREVIATIONS USED IN REMARKS
   TC - TEMPERATURE IN CELSIUS
  WCI - WIND CHILL INDEX
   HX - HEAT INDEX
  VSB - VISIBILITY

  

000
ASUS43 KDTX 182010
RWRMI 
MICHIGAN HOURLY REGIONAL WEATHER ROUNDUP
NATIONAL WEATHER SERVICE DETROIT/PONTIAC MI
ISSUED BY NATIONAL WEATHER SERVICE GRAND RAPIDS MI
300 PM EST FRI JAN 18 2019

NOTE: "FAIR" INDICATES FEW OR NO CLOUDS BELOW 12,000 FEET WITH NO
SIGNIFICANT WEATHER AND/OR OBSTRUCTION TO VISIBILITY.

MIZ047>049-052>055-059>063-066>070-074>076-081>083-182100-
SOUTHEAST LOWER MICHIGAN
  
CITY           SKY/WX    TMP DP  RH WIND       PRES   REMARKS
ADRIAN         CLOUDY    31  23  72 N7        30.14F WCI  24          
ALMA           FAIR      28  15  58 NW7       30.15S WCI  21          
ANN ARBOR      CLOUDY    29  21  72 W7        30.14S WCI  22          
BAD AXE        CLOUDY    27  16  63 W9        30.13R WCI  18          
DETROIT CITY   CLOUDY    28  18  66 NW10      30.15R WCI  19          
DETROIT        CLOUDY    30  19  63 NW8       30.15S WCI  22          
FLINT          FAIR      26  16  65 NW6       30.16S WCI  19          
GROSSE ILE     CLOUDY    31  23  73 NW8       30.14F WCI  23          
HILLSDALE      CLOUDY    30  23  73 N7        30.11S WCI  23          
HOWELL         FAIR      28  17  64 W8        30.13S WCI  20          

CITY           SKY/WX    TMP DP  RH WIND       PRES   REMARKS
JACKSON        PTSUNNY   29  22  75 NW7       30.13S WCI  22          
LANSING        PTSUNNY   27  17  66 NW6       30.16S WCI  20          
MASON          CLOUDY    29  21  70 W5        30.14S WCI  24          
MONROE         CLOUDY    31  26  80 NW7       30.14S WCI  24          
MT. CLEMENS    CLOUDY    28  20  70 NW9       30.14R WCI  20          
PONTIAC        CLOUDY    27  18  69 NW7       30.12S WCI  19          
PORT HOPE        N/A     27  15  61 W13G20    30.13R WCI  16          
PORT HURON     CLOUDY    28  18  64 W7        30.16R WCI  21          
TRI CITIES     FAIR      28  16  60 NW10      30.15S WCI  19          
YPSILANTI      CLOUDY    32  21  64 NW9       30.15S WCI  24          
$$
MIZ043>046-050>051-056>058-064>065-071>073-077>080-182100-
SOUTHWEST LOWER MICHIGAN
  
CITY           SKY/WX    TMP DP  RH WIND       PRES   REMARKS
BATTLE CREEK   CLOUDY    28  19  69 NW7       30.14F WCI  21          
BENTON HARBOR  CLOUDY    30  20  66 VRB6      30.17R WCI  24          
BIG RAPIDS     FAIR      27  11  53 NW7       30.13S WCI  19          
COLDWATER      CLOUDY    31  25  77 N5        30.13F WCI  27          
HOLLAND        PTSUNNY   30  17  58 VRB7      30.18R WCI  23          
GRAND RAPIDS   CLOUDY    28  14  55 NW7       30.15F WCI  21          
KALAMAZOO      CLOUDY    28  19  69 N6        30.16S WCI  22          
MARSHALL       CLOUDY    30  23  75 NW5       30.13F WCI  25          
MOUNT PLEASANT FAIR      28  13  53 W5        30.13F WCI  23          
MUSKEGON       CLOUDY    30  15  53 N9        30.19R WCI  22          
STURGIS        CLOUDY    33  24  70 NW5       30.12F WCI  28          
$$
MIZ016>042-182100-
NORTHERN LOWER MICHIGAN
  
CITY           SKY/WX    TMP DP  RH WIND       PRES   REMARKS
ALPENA         CLOUDY    23   7  50 NW12G18   30.15R WCI  12          
BEAVER ISLAND  PTSUNNY   14   3  60 NW13G22   30.22R WCI   0          
BELLAIRE       CLOUDY    21   9  58 NW8       30.19R WCI  12          
CADILLAC       FAIR      21   3  45 NW8       30.10S WCI  11          
CHARLEVOIX     CLOUDY    19  10  65 NW14G23   30.22S WCI   6          
GAYLORD        CLOUDY    17  10  74 NW9       30.11R WCI   6          
HOUGHTON LAKE  FAIR      21   7  54 NW7       30.12R WCI  12          
MANISTEE       PTSUNNY   25  12  58 NW10      30.20R WCI  15          
OSCODA         FAIR      27  11  50 W13       30.13R WCI  17          
PELLSTON       PTSUNNY   15   4  61 NW16      30.20R WCI  -1          
TRAVERSE CITY  CLOUDY    23  11  60 N12       30.17R WCI  12          
LUDINGTON      FAIR      24  11  57 N8        30.20R WCI  15          
$$
MIZ007>008-015-182100-
EASTERN UPPER MICHIGAN
  
CITY           SKY/WX    TMP DP  RH WIND       PRES   REMARKS
KINROSS        SNOW      10   5  80 N16G25    30.19R VSB 1/2 WCI  -7  
MACKINAC ISLAN CLOUDY    16   4  59 NW13G21   30.19R WCI   2          
NEWBERRY       LGT SNOW  10  -3  55 NW9G20    30.21R WCI  -3          
S. S. MARIE    LGT SNOW   8   1  73 N12G26    30.20R VSB 1   WCI  -7  
$$
MIZ004>006-011>014-085-182100-
CENTRAL UPPER MICHIGAN
  
CITY           SKY/WX    TMP DP  RH WIND       PRES   REMARKS
MANISTIQUE     CLOUDY    13  -6  43 NW14      30.23R WCI  -2          
ESCANABA       PTSUNNY   13   1  59 N9G20     30.25R WCI   1          
MENOMINEE      FAIR      20   7  57 N8        30.26R WCI  10          
SAWYER-GWINN   PTSUNNY    7  -2  66 N14       30.21R WCI -10          
$$
MIZ001>003-009>011-084-182100-
WESTERN UPPER MICHIGAN
  
CITY           SKY/WX    TMP DP  RH WIND       PRES   REMARKS
IRON MOUNTAIN  FAIR      10  -1  61 NW13      30.21R WCI  -5          
HOUGHTON       LGT SNOW   2  -9  60 N13       30.26F WCI -15          
COPPER HARBOR    N/A      5  -1  76 N16G26    30.31S WCI -14          
IRONWOOD       LGT SNOW   7   0  73 N8        30.27R WCI  -6          
$$

ABBREVIATIONS USED IN REMARKS
   TC - TEMPERATURE IN CELSIUS
  WCI - WIND CHILL INDEX
   HX - HEAT INDEX
  VSB - VISIBILITY